When you browse on this site, cookies collect data to enhance your experience and personalize the content and advertising you see.
Visit our Privacy Policy to learn more. By continuing to use the site, you agree to this use of cookies and data.
  • Em Portugal
  • Lista de países
  • Para 7 dias
  • Temperatura da água
  • Mapa do tempo
  • Widgets de tempo
  • user-avatar
    Iniciar Sessão

    Previsão horária em Pitsunda

    Hoje, 10 Dezembro, Terça-feira

    Tempo Temperatura Precipitação Vento Pressão Humidade
    00:00 +5°C° 0 mm 3 m/s 763 mmHg 69%
    01:00 +5°C° 0 mm 3 m/s 763 mmHg 68%
    02:00 +5°C° 0 mm 3 m/s 763 mmHg 67%
    03:00 +4°C° 0 mm 3 m/s 763 mmHg 66%
    04:00 +5°C° 0 mm 3 m/s 763 mmHg 65%
    05:00 +5°C° 0 mm 3 m/s 763 mmHg 63%
    06:00 +5°C° 0 mm 3 m/s 762 mmHg 62%
    07:00 +5°C° 0 mm 3 m/s 762 mmHg 62%
    08:00 +7°C° 0 mm 3 m/s 762 mmHg 61%
    09:00 +7°C° 0 mm 3 m/s 762 mmHg 61%
    10:00 +9°C° 0 mm 2 m/s 762 mmHg 61%
    11:00 +10°C° 0 mm 2 m/s 762 mmHg 62%
    12:00 +13°C° 0 mm 1 m/s 761 mmHg 62%
    13:00 +13°C° 0 mm 1 m/s 761 mmHg 65%
    14:00 +13°C° 0 mm 1 m/s 761 mmHg 67%
    15:00 +12°C° 0 mm 1 m/s 761 mmHg 69%
    16:00 +11°C° 0 mm 1 m/s 761 mmHg 66%
    17:00 +9°C° 0 mm 2 m/s 761 mmHg 62%
    18:00 +8°C° 0 mm 2 m/s 761 mmHg 59%
    19:00 +7°C° 0 mm 3 m/s 762 mmHg 58%
    20:00 +7°C° 0 mm 3 m/s 762 mmHg 56%
    21:00 +7°C° 0 mm 3 m/s 762 mmHg 55%
    22:00 +7°C° 0 mm 3 m/s 762 mmHg 56%
    23:00 +7°C° 0 mm 3 m/s 762 mmHg 57%

    Amanhã, 11 Dezembro, Quarta-feira

    Tempo Temperatura Precipitação Vento Pressão Humidade
    00:00 +7°C° 0 mm 2 m/s 762 mmHg 58%
    01:00 +7°C° 0 mm 2 m/s 762 mmHg 59%
    02:00 +7°C° 0 mm 3 m/s 762 mmHg 61%
    03:00 +7°C° 0 mm 3 m/s 762 mmHg 62%
    04:00 +7°C° 0 mm 3 m/s 762 mmHg 62%
    05:00 +7°C° 0 mm 3 m/s 762 mmHg 63%
    06:00 +7°C° 0 mm 3 m/s 762 mmHg 63%
    07:00 +8°C° 0 mm 3 m/s 762 mmHg 64%
    08:00 +8°C° 0 mm 3 m/s 762 mmHg 64%
    09:00 +9°C° 0 mm 3 m/s 762 mmHg 64%
    10:00 +10°C° 0 mm 3 m/s 762 mmHg 65%
    11:00 +11°C° 0 mm 3 m/s 762 mmHg 67%
    12:00 +13°C° 0 mm 3 m/s 761 mmHg 68%
    13:00 +12°C° 0 mm 3 m/s 761 mmHg 70%
    14:00 +13°C° 0 mm 2 m/s 761 mmHg 73%
    15:00 +13°C° 0 mm 2 m/s 761 mmHg 75%
    16:00 +12°C° 0 mm 2 m/s 761 mmHg 73%
    17:00 +10°C° 0 mm 2 m/s 761 mmHg 72%
    18:00 +9°C° 0 mm 2 m/s 761 mmHg 70%
    19:00 +9°C° 0 mm 2 m/s 761 mmHg 68%
    20:00 +8°C° 0 mm 2 m/s 761 mmHg 67%
    21:00 +8°C° 0 mm 2 m/s 761 mmHg 66%
    22:00 +8°C° 0 mm 2 m/s 761 mmHg 65%
    23:00 +8°C° 0 mm 2 m/s 761 mmHg 64%

    Depois de amanhã, 12 Dezembro, Quinta-feira

    Tempo Temperatura Precipitação Vento Pressão Humidade
    00:00 +8°C° 0 mm 3 m/s 761 mmHg 64%
    01:00 +8°C° 0 mm 3 m/s 760 mmHg 64%
    02:00 +8°C° 0 mm 3 m/s 760 mmHg 63%
    03:00 +8°C° 0 mm 3 m/s 760 mmHg 63%
    04:00 +8°C° 0 mm 3 m/s 759 mmHg 62%
    05:00 +8°C° 0 mm 3 m/s 759 mmHg 62%
    06:00 +8°C° 0 mm 3 m/s 758 mmHg 61%
    07:00 +8°C° 0 mm 3 m/s 758 mmHg 61%
    08:00 +9°C° 0 mm 3 m/s 758 mmHg 61%
    09:00 +9°C° 0 mm 2 m/s 758 mmHg 61%
    10:00 +12°C° 0 mm 2 m/s 758 mmHg 62%
    11:00 +13°C° 0 mm 1 m/s 757 mmHg 63%
    12:00 +15°C° 0 mm 1 m/s 757 mmHg 64%
    13:00 +15°C° 0 mm 1 m/s 757 mmHg 66%
    14:00 +14°C° 0 mm 1 m/s 756 mmHg 68%
    15:00 +14°C° 0 mm 1 m/s 756 mmHg 70%
    16:00 +13°C° 0 mm 1 m/s 756 mmHg 67%
    17:00 +11°C° 0 mm 1 m/s 756 mmHg 65%
    18:00 +10°C° 0 mm 1 m/s 756 mmHg 62%
    19:00 +9°C° 0 mm 2 m/s 756 mmHg 61%
    20:00 +9°C° 0 mm 2 m/s 756 mmHg 59%
    21:00 +8°C° 0 mm 2 m/s 756 mmHg 58%
    22:00 +8°C° 0 mm 2 m/s 756 mmHg 57%
    23:00 +8°C° 0 mm 3 m/s 756 mmHg 56%

    13 Dezembro, Sexta-feira

    Tempo Temperatura Precipitação Vento Pressão Humidade
    00:00 +8°C° 0 mm 3 m/s 755 mmHg 54%
    01:00 +8°C° 0 mm 3 m/s 755 mmHg 53%
    02:00 +8°C° 0 mm 3 m/s 755 mmHg 52%
    03:00 +8°C° 0 mm 3 m/s 755 mmHg 52%
    04:00 +8°C° 0 mm 3 m/s 755 mmHg 51%
    05:00 +8°C° 0 mm 3 m/s 755 mmHg 50%
    06:00 +8°C° 0 mm 3 m/s 755 mmHg 49%
    07:00 +8°C° 0 mm 3 m/s 755 mmHg 50%
    08:00 +9°C° 0 mm 3 m/s 755 mmHg 51%
    09:00 +9°C° 0 mm 3 m/s 755 mmHg 51%
    10:00 +10°C° 0 mm 3 m/s 755 mmHg 54%
    11:00 +12°C° 0 mm 3 m/s 755 mmHg 56%
    12:00 +14°C° 0 mm 2 m/s 754 mmHg 58%
    13:00 +14°C° 0 mm 2 m/s 754 mmHg 61%
    14:00 +14°C° 0 mm 2 m/s 754 mmHg 64%
    15:00 +14°C° 0 mm 2 m/s 754 mmHg 66%
    16:00 +13°C° 0 mm 2 m/s 755 mmHg 63%
    17:00 +12°C° 0 mm 2 m/s 755 mmHg 60%
    18:00 +10°C° 0 mm 2 m/s 755 mmHg 57%
    19:00 +10°C° 0 mm 2 m/s 756 mmHg 55%
    20:00 +10°C° 0 mm 3 m/s 756 mmHg 54%
    21:00 +10°C° 0 mm 3 m/s 756 mmHg 53%
    22:00 +10°C° 0 mm 3 m/s 756 mmHg 54%
    23:00 +10°C° 0 mm 3 m/s 756 mmHg 55%

    14 Dezembro, Sábado

    Tempo Temperatura Precipitação Vento Pressão Humidade
    00:00 +10°C° 0 mm 4 m/s 756 mmHg 56%
    01:00 +10°C° 0 mm 4 m/s 756 mmHg 57%
    02:00 +9°C° 0 mm 5 m/s 756 mmHg 59%
    03:00 +9°C° 0 mm 5 m/s 756 mmHg 61%
    04:00 +9°C° 0 mm 5 m/s 756 mmHg 66%
    05:00 +9°C° 0 mm 5 m/s 757 mmHg 70%
    06:00 +9°C° 0 mm 6 m/s 757 mmHg 74%
    07:00 +9°C° 0 mm 6 m/s 757 mmHg 73%
    08:00 +9°C° 0 mm 5 m/s 757 mmHg 73%
    09:00 +10°C° 0 mm 5 m/s 757 mmHg 72%
    10:00 +12°C° 0 mm 5 m/s 757 mmHg 71%
    11:00 +13°C° 0 mm 5 m/s 757 mmHg 70%
    12:00 +15°C° 0 mm 5 m/s 756 mmHg 69%
    13:00 +14°C° 0 mm 4 m/s 756 mmHg 71%
    14:00 +14°C° 0 mm 4 m/s 756 mmHg 73%
    15:00 +14°C° 0 mm 3 m/s 756 mmHg 75%
    16:00 +13°C° 0 mm 3 m/s 757 mmHg 74%
    17:00 +12°C° 0 mm 3 m/s 757 mmHg 73%
    18:00 +11°C° 0 mm 3 m/s 757 mmHg 72%
    19:00 +11°C° 0 mm 3 m/s 757 mmHg 71%
    20:00 +10°C° 0 mm 3 m/s 757 mmHg 69%
    21:00 +10°C° 0 mm 3 m/s 757 mmHg 68%
    22:00 +10°C° 0 mm 3 m/s 758 mmHg 67%
    23:00 +10°C° 0 mm 3 m/s 758 mmHg 66%

    15 Dezembro, Domingo

    Tempo Temperatura Precipitação Vento Pressão Humidade
    00:00 +10°C° 0 mm 4 m/s 758 mmHg 64%
    01:00 +10°C° 0 mm 4 m/s 758 mmHg 64%
    02:00 +10°C° 0 mm 4 m/s 758 mmHg 63%
    03:00 +10°C° 0 mm 4 m/s 758 mmHg 63%
    04:00 +10°C° 0 mm 4 m/s 758 mmHg 63%
    05:00 +9°C° 0 mm 5 m/s 758 mmHg 62%
    06:00 +9°C° 0 mm 5 m/s 758 mmHg 62%
    07:00 +9°C° 0 mm 5 m/s 758 mmHg 62%
    08:00 +10°C° 0 mm 5 m/s 759 mmHg 62%
    09:00 +10°C° 0 mm 5 m/s 759 mmHg 62%
    10:00 +12°C° 0 mm 5 m/s 759 mmHg 63%
    11:00 +14°C° 0 mm 5 m/s 759 mmHg 64%
    12:00 +15°C° 0 mm 4 m/s 759 mmHg 66%
    13:00 +15°C° 0 mm 4 m/s 759 mmHg 69%
    14:00 +14°C° 0 mm 3 m/s 759 mmHg 72%
    15:00 +14°C° 0 mm 3 m/s 759 mmHg 76%
    16:00 +13°C° 0 mm 3 m/s 759 mmHg 74%
    17:00 +13°C° 0 mm 2 m/s 760 mmHg 73%
    18:00 +12°C° 0 mm 2 m/s 760 mmHg 71%
    19:00 +12°C° 0 mm 2 m/s 761 mmHg 70%
    20:00 +12°C° 0 mm 2 m/s 761 mmHg 68%
    21:00 +12°C° 0 mm 2 m/s 761 mmHg 67%
    22:00 +11°C° 0 mm 3 m/s 762 mmHg 68%
    23:00 +11°C° 0 mm 3 m/s 762 mmHg 69%
    Mostrar mais